HOECHSTEN Weather Reports


Display with metric or nautical units.
time (UTC)temp
F
wind
direction
speed
MPH
gust
MPH
rain 1hr
in
rain 24hr
in
rain mn
in
humidity
%
barometer
mb
20260504043211 54 61 3.0 0.0 0.00 0.00 0.00 62 1010.6
20260504040211 53 75 2.0 0.0 0.00 0.00 0.00 68 1010.5
20260504033211 53 208 0.0 0.0 0.00 0.00 0.00 68 1010.7
20260504030212 53 208 2.0 0.0 0.00 0.00 0.00 67 1010.9
20260504023211 54 208 4.0 0.0 0.00 0.00 0.00 65 1011.1
20260504020212 55 159 3.0 0.0 0.00 0.00 0.00 61 1010.8
20260504013211 55 61 3.0 0.0 0.00 0.00 0.00 59 1010.8
20260504010211 56 76 7.0 0.0 0.00 0.00 0.00 58 1010.7
20260504003210 55 76 4.0 0.0 0.00 0.00 0.00 62 1010.8
20260504000208 55 67 0.0 0.0 0.00 0.00 0.00 63 1011.2
20260503233209 54 67 3.0 0.0 0.00 0.00 0.00 64 1011.2
20260503230209 55 287 0.0 0.0 0.00 0.00 0.00 63 1011.4
20260503223210 55 287 4.0 0.0 0.00 0.00 0.00 62 1011.5
20260503220212 55 295 4.0 0.0 0.00 0.00 0.00 62 1011.3
20260503213210 56 273 7.0 0.0 0.00 0.00 0.00 59 1011.0
20260503210211 56 248 6.0 0.0 0.00 0.00 0.00 59 1010.7
20260503203209 57 271 11.0 0.0 0.00 0.00 0.00 57 1010.5
20260503200211 56 252 6.0 0.0 0.00 0.00 0.00 58 1010.3
20260503193210 58 284 9.0 0.0 0.00 0.00 0.00 54 1009.7
20260503190210 60 295 11.0 0.0 0.00 0.00 0.00 49 1009.5
20260503183209 62 272 12.0 0.0 0.00 0.00 0.00 44 1009.4
20260503180210 64 240 7.0 0.0 0.00 0.00 0.00 53 1008.8
20260503173209 68 219 12.0 0.0 0.00 0.00 0.00 45 1008.5
20260503170211 69 209 3.0 0.0 0.00 0.00 0.00 42 1008.5
20260503160211 70 213 4.0 0.0 0.00 0.00 0.00 39 1008.3
20260503150209 70 168 12.0 0.0 0.00 0.00 0.00 37 1008.4
20260503140210 73 186 10.0 0.0 0.00 0.00 0.00 31 1008.6
20260503130210 72 230 6.0 0.0 0.00 0.00 0.00 34 1009.4
20260503120210 72 257 8.0 0.0 0.00 0.00 0.00 32 1010.0